GORIZONT 30 [-]

Last updated on June 19, 2021, 11:33 a.m. UTC

1 23108U 94030A   21169.25151243  .00000105  00000-0  00000-0 0  9998
2 23108  14.7389   2.4380 0002042  66.6769 309.6139  1.00339120 99168
UTC
Height (km)
Latitude
Longitude
Inclination
Orbital Period
UTC large
Height (km)
Speed (km/s)
/
Latitude / Longitude
Inclination (degrees)
Orbital Period (minutes)
Azimuth
Elevation
Range (km)
Doppler Factor
iOS Compass Heading
iOS Angle

Next 30 passes for location: Hong Kong

Rise time Rise Azimuth (degrees) Set time Set Azimuth (degrees) Duration Max altitude (degrees)

No matching passes for this satellites